When you browse on this site, cookies collect data to enhance your experience and personalize the content and advertising you see.
Visit our Privacy Policy to learn more. By continuing to use the site, you agree to this use of cookies and data.
  • In Hungary
  • List of Countries
  • For 7 days
  • Water Temperature
  • Satellite Maps
  • Weather Map
  • News
  • Weather Widgets
  • user-avatar
    Login

    Hourly Weather Paiporta

    Today, 19 November, Monday

    Time Temperature Precipitation Wind Pressure Humidity
    00:00 +12°C° 0 mm 7 mps 751 mmHg 90%
    01:00 +12°C° 0.5 mm 7 mps 750 mmHg 90%
    02:00 +12°C° 0.5 mm 7 mps 750 mmHg 89%
    03:00 +13°C° 0.5 mm 6 mps 749 mmHg 88%
    04:00 +13°C° 0.6 mm 6 mps 749 mmHg 89%
    05:00 +13°C° 0.6 mm 6 mps 749 mmHg 89%
    06:00 +13°C° 0.6 mm 6 mps 748 mmHg 90%
    07:00 +13°C° 0.6 mm 6 mps 748 mmHg 89%
    08:00 +14°C° 0.6 mm 6 mps 748 mmHg 88%
    09:00 +14°C° 0.6 mm 7 mps 748 mmHg 87%
    10:00 +14°C° 0.6 mm 7 mps 748 mmHg 87%
    11:00 +14°C° 0.6 mm 7 mps 748 mmHg 86%
    12:00 +15°C° 0.6 mm 7 mps 748 mmHg 85%
    13:00 +15°C° 0.6 mm 6 mps 748 mmHg 85%
    14:00 +15°C° 0.6 mm 6 mps 748 mmHg 84%
    15:00 +15°C° 0.6 mm 6 mps 748 mmHg 83%
    16:00 +14°C° 0.5 mm 5 mps 748 mmHg 86%
    17:00 +14°C° 0.5 mm 5 mps 748 mmHg 88%
    18:00 +14°C° 0.5 mm 4 mps 749 mmHg 90%
    19:00 +14°C° 0.8 mm 4 mps 749 mmHg 90%
    20:00 +14°C° 0.8 mm 3 mps 749 mmHg 90%
    21:00 +13°C° 0.8 mm 3 mps 749 mmHg 90%
    22:00 +13°C° 0.3 mm 3 mps 749 mmHg 89%
    23:00 +13°C° 0.3 mm 3 mps 749 mmHg 89%

    Tomorrow, 20 November, Tuesday

    Time Temperature Precipitation Wind Pressure Humidity
    00:00 +13°C° 0.3 mm 2 mps 749 mmHg 89%
    01:00 +12°C° 0 mm 3 mps 749 mmHg 89%
    02:00 +12°C° 0 mm 4 mps 749 mmHg 90%
    03:00 +12°C° 0 mm 5 mps 749 mmHg 90%
    04:00 +12°C° 0 mm 5 mps 749 mmHg 88%
    05:00 +13°C° 0 mm 6 mps 749 mmHg 87%
    06:00 +13°C° 0 mm 6 mps 749 mmHg 86%
    07:00 +13°C° 0 mm 6 mps 749 mmHg 82%
    08:00 +14°C° 0 mm 7 mps 749 mmHg 79%
    09:00 +15°C° 0 mm 7 mps 750 mmHg 75%
    10:00 +16°C° 0 mm 7 mps 750 mmHg 69%
    11:00 +17°C° 0 mm 7 mps 749 mmHg 64%
    12:00 +18°C° 0 mm 7 mps 749 mmHg 58%
    13:00 +17°C° 0.2 mm 7 mps 749 mmHg 62%
    14:00 +17°C° 0.2 mm 7 mps 749 mmHg 67%
    15:00 +16°C° 0.2 mm 7 mps 749 mmHg 71%
    16:00 +15°C° 0.2 mm 7 mps 750 mmHg 72%
    17:00 +15°C° 0.2 mm 7 mps 750 mmHg 73%
    18:00 +14°C° 0.2 mm 7 mps 750 mmHg 73%
    19:00 +13°C° 0 mm 8 mps 751 mmHg 73%
    20:00 +13°C° 0 mm 8 mps 752 mmHg 73%
    21:00 +12°C° 0 mm 8 mps 752 mmHg 74%
    22:00 +12°C° 0 mm 9 mps 752 mmHg 74%
    23:00 +12°C° 0 mm 9 mps 753 mmHg 75%

    Day after tomorrow, 21 November, Wednesday

    Time Temperature Precipitation Wind Pressure Humidity
    00:00 +12°C° 0 mm 9 mps 753 mmHg 76%
    01:00 +12°C° 0.1 mm 9 mps 753 mmHg 76%
    02:00 +12°C° 0.1 mm 9 mps 754 mmHg 77%
    03:00 +13°C° 0.1 mm 9 mps 754 mmHg 77%
    04:00 +12°C° 0 mm 9 mps 754 mmHg 77%
    05:00 +12°C° 0 mm 9 mps 755 mmHg 77%
    06:00 +12°C° 0 mm 8 mps 755 mmHg 77%
    07:00 +13°C° 0 mm 8 mps 755 mmHg 75%
    08:00 +13°C° 0 mm 8 mps 756 mmHg 73%
    09:00 +13°C° 0 mm 8 mps 757 mmHg 71%
    10:00 +15°C° 0 mm 8 mps 757 mmHg 67%
    11:00 +16°C° 0 mm 8 mps 757 mmHg 62%
    12:00 +16°C° 0 mm 8 mps 758 mmHg 58%
    13:00 +17°C° 0 mm 7 mps 758 mmHg 56%
    14:00 +17°C° 0 mm 7 mps 758 mmHg 54%
    15:00 +17°C° 0 mm 6 mps 758 mmHg 52%
    16:00 +16°C° 0 mm 5 mps 758 mmHg 57%
    17:00 +15°C° 0 mm 4 mps 759 mmHg 61%
    18:00 +13°C° 0 mm 3 mps 759 mmHg 66%
    19:00 +13°C° 0 mm 3 mps 759 mmHg 68%
    20:00 +14°C° 0 mm 2 mps 760 mmHg 69%
    21:00 +13°C° 0 mm 2 mps 760 mmHg 71%
    22:00 +13°C° 0 mm 2 mps 760 mmHg 72%
    23:00 +13°C° 0 mm 2 mps 760 mmHg 73%

    22 November, Thursday

    Time Temperature Precipitation Wind Pressure Humidity
    00:00 +13°C° 0 mm 2 mps 761 mmHg 74%
    01:00 +13°C° 0 mm 2 mps 761 mmHg 74%
    02:00 +13°C° 0 mm 1 mps 761 mmHg 74%
    03:00 +13°C° 0 mm 1 mps 761 mmHg 74%
    04:00 +13°C° 0 mm 1 mps 761 mmHg 75%
    05:00 +13°C° 0 mm 1 mps 761 mmHg 76%
    06:00 +13°C° 0 mm 1 mps 761 mmHg 76%
    07:00 +14°C° 0.1 mm 1 mps 761 mmHg 75%
    08:00 +14°C° 0.1 mm 1 mps 762 mmHg 74%
    09:00 +15°C° 0.1 mm 1 mps 762 mmHg 73%
    10:00 +16°C° 0 mm 2 mps 762 mmHg 71%
    11:00 +16°C° 0 mm 2 mps 762 mmHg 68%
    12:00 +17°C° 0 mm 2 mps 761 mmHg 65%
    13:00 +17°C° 0 mm 2 mps 761 mmHg 65%
    14:00 +18°C° 0 mm 3 mps 761 mmHg 64%
    15:00 +18°C° 0 mm 3 mps 761 mmHg 64%
    16:00 +17°C° 0 mm 2 mps 761 mmHg 70%
    17:00 +16°C° 0 mm 2 mps 761 mmHg 77%
    18:00 +15°C° 0 mm 2 mps 761 mmHg 83%
    19:00 +15°C° 0 mm 2 mps 762 mmHg 84%
    20:00 +14°C° 0 mm 2 mps 762 mmHg 86%
    21:00 +14°C° 0 mm 2 mps 762 mmHg 87%
    22:00 +14°C° 0.1 mm 2 mps 762 mmHg 88%
    23:00 +13°C° 0.1 mm 3 mps 762 mmHg 89%

    23 November, Friday

    Time Temperature Precipitation Wind Pressure Humidity
    00:00 +13°C° 0.1 mm 3 mps 761 mmHg 89%
    01:00 +13°C° 0 mm 3 mps 761 mmHg 90%
    02:00 +13°C° 0 mm 3 mps 761 mmHg 90%
    03:00 +13°C° 0 mm 3 mps 760 mmHg 90%
    04:00 +13°C° 0 mm 4 mps 760 mmHg 91%
    05:00 +14°C° 0 mm 4 mps 760 mmHg 92%
    06:00 +14°C° 0 mm 4 mps 760 mmHg 93%
    07:00 +14°C° 0 mm 4 mps 760 mmHg 92%
    08:00 +15°C° 0 mm 4 mps 760 mmHg 91%
    09:00 +15°C° 0 mm 5 mps 760 mmHg 90%
    10:00 +17°C° 0 mm 4 mps 759 mmHg 88%
    11:00 +17°C° 0 mm 4 mps 759 mmHg 85%
    12:00 +18°C° 0 mm 4 mps 759 mmHg 82%
    13:00 +18°C° 0.1 mm 4 mps 759 mmHg 82%
    14:00 +18°C° 0.1 mm 3 mps 758 mmHg 82%
    15:00 +18°C° 0.1 mm 3 mps 758 mmHg 82%
    16:00 +17°C° 0.1 mm 2 mps 758 mmHg 86%
    17:00 +17°C° 0.1 mm 2 mps 758 mmHg 90%
    18:00 +16°C° 0.1 mm 1 mps 758 mmHg 93%
    19:00 +16°C° 0.1 mm 1 mps 758 mmHg 93%
    20:00 +16°C° 0.1 mm 1 mps 758 mmHg 93%
    21:00 +16°C° 0.1 mm 2 mps 758 mmHg 93%
    22:00 +16°C° 0.1 mm 2 mps 758 mmHg 92%
    23:00 +16°C° 0.1 mm 3 mps 758 mmHg 91%

    24 November, Saturday

    Time Temperature Precipitation Wind Pressure Humidity
    00:00 +14°C° 0.1 mm 3 mps 758 mmHg 90%
    01:00 +14°C° 0 mm 3 mps 758 mmHg 89%
    02:00 +14°C° 0 mm 3 mps 758 mmHg 89%
    03:00 +14°C° 0 mm 3 mps 758 mmHg 88%
    04:00 +14°C° 0 mm 3 mps 759 mmHg 88%
    05:00 +13°C° 0 mm 3 mps 759 mmHg 88%
    06:00 +13°C° 0 mm 4 mps 759 mmHg 87%
    07:00 +14°C° 0 mm 4 mps 760 mmHg 85%
    08:00 +14°C° 0 mm 3 mps 760 mmHg 83%
    09:00 +16°C° 0 mm 3 mps 761 mmHg 80%
    10:00 +17°C° 0 mm 3 mps 761 mmHg 74%
    11:00 +18°C° 0 mm 3 mps 760 mmHg 68%
    12:00 +19°C° 0 mm 2 mps 760 mmHg 62%
    13:00 +19°C° 0 mm 2 mps 760 mmHg 62%
    14:00 +19°C° 0 mm 2 mps 760 mmHg 62%
    15:00 +19°C° 0 mm 2 mps 759 mmHg 62%
    16:00 +18°C° 0 mm 2 mps 760 mmHg 67%
    17:00 +17°C° 0 mm 2 mps 760 mmHg 73%
    18:00 +16°C° 0 mm 2 mps 760 mmHg 79%
    19:00 +16°C° 0 mm 2 mps 761 mmHg 82%
    20:00 +16°C° 0 mm 2 mps 761 mmHg 84%
    21:00 +14°C° 0 mm 3 mps 761 mmHg 87%
    22:00 +16°C° 0.2 mm 3 mps 761 mmHg 88%
    23:00 +16°C° 0.2 mm 3 mps 761 mmHg 89%
    Show more